Location: Skalnate Pleso
(49.1889°N, 20.2450°E)
Time: 05:44:24
(UTC+01:00)

Cosmos 372 Rocket - Pass Details

Date: 19 November 2019
Orbit: 739 x 767 km, 74.1° (Epoch: 08 December)

Event Time Altitude Azimuth Distance (km) Brightness Sun altitude
Rises 05:49:33 0° 225° (SW) 3,192 6.9 -10.6°
Reaches altitude 10° 05:52:03 10° 233° (SW) 2,267 6.1 -10.2°
Maximum altitude 05:56:51 39° 302° (WNW) 1,109 4.4 -9.4°
Drops below altitude 10° 06:01:40 10° 11° (NNE) 2,266 6.4 -8.7°
Sets 06:04:10 0° 20° (NNE) 3,191 7.2 -8.3°
